[[{"header":{"parameterUnit":"m.s-1","parameterCategory":1,"la1":30.2991,"la2":30.254,"lo1":-89.0895,"lo2":-89.0444,"dx":0.0017,"dy":0.0017,"nx":28,"ny":28,"refTime":"2022-12-05T15:00:00:Z","depth":0,"parameterNumber":2,"parameterNumberName":"U-component_of_WINDS"},"data":[0,0,0,0,0,0,0,0,0,0,0,0,0,0,0,0,0,0,0,0,0,0,0,0,0,0,0,0,0,0,0,0,0,0,0,0,0,0,0,0,0,0,0,0,0,0,0,0,0,0,0,0,0,0,0,0,0,0,0.4817,0.4817,0,0.4844,0.4844,0.4845,0.4897,0.4898,0.4899,0.49,0.4926,0.4926,0.4926,0,0,0,0,0,0,0,0,0,0,0,0,0,0.4811,0.4811,0.4817,0.4817,0.4818,0.4844,0.4844,0.4845,0.4897,0.4898,0.4899,0.4901,0.4927,0.4926,0.4926,0,0,0,0,0,0,0,0,0,0,0,0,0,0.4823,0.4811,0.4817,0.4847,0.485,0.4844,0.4844,0.4845,0.4897,0.4898,0.49,0.4901,0.4927,0.4926,0.4926,0.4892,0,0,0.4925,0.4925,0,0,0,0,0,0,0,0,0.4823,0.4823,0.4842,0.4845,0.4848,0.4869,0.4852,0.4861,0.4896,0.4879,0.49,0.4902,0.4906,0.4907,0.4909,0.4894,0.4895,0.4925,0.4924,0.4924,0.4924,0,0,0,0,0,0,0,0.4822,0.4823,0.4828,0.4842,0.4846,0.4859,0.4863,0.4854,0.4883,0.4881,0.4884,0.4887,0.4908,0.4909,0.491,0.4895,0.4925,0.4924,0.4924,0.4924,0.4856,0.4854,0,0,0,0,0,0,0.4816,0.4822,0.4827,0.4829,0.4839,0.4858,0.4862,0.4861,0.4884,0.4889,0.4886,0.4889,0.4909,0.491,0.4911,0.4875,0.4924,0.4924,0.4924,0.4857,0.4856,0.4854,0,0,0,0,0,0,0.4816,0.4816,0.4826,0.4826,0.4828,0.4857,0.4855,0.486,0.4862,0.4887,0.4893,0.4882,0.491,0.4912,0.4897,0.4876,0.4924,0.4923,0.4859,0.4857,0.4855,0.4801,0,0,0,0,0,0,0.4816,0.4816,0.4803,0.4825,0.4828,0.4811,0.4853,0.486,0.4861,0.4866,0.4885,0.489,0.4912,0.4898,0.4897,0.4877,0.4923,0.4861,0.4858,0.4855,0.4804,0.4797,0.479,0,0,0,0,0,0.4815,0.4786,0.4802,0.4803,0.4813,0.481,0.4811,0.4838,0.4859,0.4847,0.4864,0.4889,0.4879,0.4896,0.4895,0.4875,0.4863,0.4859,0.4856,0.4808,0.4798,0.479,0,0,0,0,0,0,0.476,0.479,0.4808,0.4785,0.4795,0.4819,0.4804,0.4827,0.483,0.4834,0.4867,0.487,0.4852,0.4862,0.488,0.4844,0.4875,0.4871,0.4838,0.483,0.4823,0.4821,0.4923,0,0,0,0,0,0.4745,0.474,0.4767,0.4744,0.4748,0.4775,0.4775,0.4794,0.4805,0.4809,0.4825,0.4835,0.4834,0.4832,0.4833,0.4806,0.4812,0.4792,0.4785,0.4779,0.4775,0.4764,0.4755,0.4842,0.4842,0.4842,0,0,0.4714,0.473,0.4725,0.4733,0.4743,0.4738,0.4778,0.477,0.4766,0.4808,0.4796,0.4808,0.4821,0.48,0.4792,0.4808,0.4753,0.4774,0.4769,0.4769,0.4759,0.4751,0.4743,0.484,0.484,0.4841,0,0,0.4656,0.4667,0.465,0.466,0.4674,0.4693,0.4689,0.471,0.4719,0.4708,0.474,0.4736,0.4733,0.4742,0.4745,0.4692,0.4716,0.4691,0.4654,0.4642,0.4635,0.4629,0.4611,0.4604,0.4688,0.4687,0.4687,0,0.4616,0.4609,0.4638,0.4629,0.4632,0.4671,0.4655,0.4662,0.4676,0.4677,0.4695,0.4694,0.4705,0.4688,0.4675,0.4677,0.4674,0.4689,0.4634,0.4628,0.4623,0.4606,0.4599,0.4684,0.4685,0.4685,0.4685,0,0.4559,0.4554,0.4539,0.4552,0.4554,0.4541,0.4569,0.4567,0.4587,0.4604,0.4592,0.4607,0.4612,0.461,0.4629,0.4596,0.4606,0.4628,0.4659,0.4611,0.4596,0.459,0.468,0.4681,0.4682,0.4683,0,0,0.4465,0.4496,0.449,0.4498,0.4518,0.4514,0.4504,0.4509,0.4507,0.4516,0.4508,0.4506,0.4528,0.4532,0.4553,0.4542,0.4501,0.4567,0.4568,0.4554,0.4467,0.445,0.4442,0.4517,0.4516,0.4515,0.4466,0,0.4411,0.4394,0.4422,0.4399,0.4396,0.4433,0.4424,0.4436,0.4452,0.4451,0.4468,0.4467,0.4495,0.4498,0.449,0.4508,0.4484,0.4511,0.451,0.451,0.4506,0.4434,0.4416,0.4369,0.446,0.4459,0.4459,0,0.4345,0.4352,0.4329,0.4352,0.4352,0.4343,0.4351,0.435,0.4364,0.4377,0.4383,0.4407,0.4399,0.443,0.442,0.4438,0.4439,0.4448,0.4447,0.4448,0.4481,0.4433,0.4354,0.4347,0.4449,0.445,0.4451,0,0.4279,0.4282,0.427,0.4275,0.4301,0.4295,0.4305,0.4321,0.4323,0.4331,0.4333,0.4339,0.4342,0.4346,0.4373,0.4392,0.436,0.4392,0.437,0.4369,0.4361,0.4361,0.4282,0.4361,0.4361,0.4362,0.4362,0,0.4216,0.4201,0.4241,0.4233,0.4218,0.425,0.4234,0.4248,0.4262,0.4259,0.4291,0.4287,0.4322,0.4321,0.4342,0.4331,0.4332,0.4342,0.4348,0.4339,0.4338,0.434,0.4345,0.436,0.436,0.4361,0.4361,0,0.4139,0.4166,0.4155,0.4181,0.4188,0.4175,0.4198,0.4192,0.4211,0.4206,0.4207,0.4236,0.4237,0.4264,0.4271,0.4285,0.4266,0.4277,0.4261,0.4265,0.4242,0.4244,0.4161,0.4152,0.4237,0.4236,0.4235,0,0.4097,0.4087,0.4113,0.4113,0.4122,0.4122,0.4125,0.4157,0.4158,0.4175,0.4167,0.4172,0.4177,0.4178,0.42,0.4206,0.4218,0.4189,0.4219,0.4211,0.4218,0.4219,0.4218,0.4182,0.4181,0.418,0.4179,0,0.402,0.4034,0.4037,0.4046,0.4049,0.4056,0.4066,0.4065,0.41,0.41,0.4103,0.4107,0.4115,0.4119,0.4129,0.4141,0.4166,0.417,0.4165,0.4156,0.4148,0.4153,0.4244,0.4171,0.4172,0.4173,0.4173,0.4173,0.396,0.3953,0.3971,0.3974,0.3985,0.3994,0.399,0.401,0.4012,0.4022,0.404,0.404,0.4057,0.4073,0.4083,0.4083,0.4098,0.4091,0.409,0.4088,0.4083,0.4148,0.4085,0.4085,0.4086,0.4086,0.4086,0,0.3885,0.3899,0.3901,0.3915,0.3918,0.3942,0.3955,0.3956,0.3955,0.3969,0.3974,0.3977,0.3982,0.4005,0.4013,0.4009,0.4021,0.401,0.4011,0.4013,0.4069,0.4073,0.4,0.4,0.4001,0.4001,0.4001,0.4001,0.3846,0.3836,0.3853,0.3849,0.3863,0.3864,0.3869,0.3878,0.3889,0.3892,0.3897,0.3912,0.393,0.3939,0.3945,0.3952,0.3954,0.3939,0.3949,0.4001,0.4009,0.4017,0.4021,0.3939,0.3939,0.3894,0.3893,0.3893]},{"header":{"parameterUnit":"m.s-1","parameterCategory":1,"la1":30.2991,"la2":30.254,"lo1":-89.0895,"lo2":-89.0444,"dx":0.0017,"dy":0.0017,"nx":28,"ny":28,"refTime":"2022-12-05T15:00:00:Z","depth":0,"parameterNumber":3,"parameterNumberName":"V-component_of_WINDS"},"data":[0,0,0,0,0,0,0,0,0,0,0,0,0,0,0,0,0,0,0,0,0,0,0,0,0,0,0,0,0,0,0,0,0,0,0,0,0,0,0,0,0,0,0,0,0,0,0,0,0,0,0,0,0,0,0,0,0,0,2.0708,2.0707,0,2.063,2.0629,2.0628,2.0608,2.0608,2.0609,2.0609,2.0526,2.0523,2.0521,0,0,0,0,0,0,0,0,0,0,0,0,0,2.0839,2.0837,2.0708,2.0707,2.0706,2.063,2.0629,2.0628,2.0608,2.0608,2.0609,2.0609,2.0527,2.0524,2.052,0,0,0,0,0,0,0,0,0,0,0,0,0,2.0774,2.0836,2.0708,2.0687,2.0684,2.063,2.0629,2.0628,2.0608,2.0608,2.0609,2.061,2.0528,2.0524,2.052,2.048,0,0,2.0508,2.0506,0,0,0,0,0,0,0,0,2.0777,2.0769,2.0691,2.0689,2.0685,2.0629,2.0644,2.0578,2.0607,2.0637,2.0609,2.061,2.056,2.0553,2.0537,2.0476,2.0473,2.0507,2.0505,2.0503,2.0502,0,0,0,0,0,0,0,2.0782,2.0772,2.0677,2.069,2.0687,2.0681,2.0673,2.0632,2.0595,2.0634,2.0633,2.0624,2.0558,2.054,2.0534,2.0472,2.0507,2.0504,2.0501,2.05,2.0377,2.0377,0,0,0,0,0,0,2.079,2.0776,2.068,2.0675,2.0734,2.0678,2.0669,2.0647,2.0595,2.0588,2.0623,2.0623,2.0547,2.0539,2.0531,2.0483,2.0503,2.0499,2.0497,2.0378,2.0377,2.0376,0,0,0,0,0,0,2.0793,2.0782,2.0683,2.0725,2.0712,2.0675,2.0651,2.0645,2.0627,2.0587,2.058,2.0612,2.0547,2.0537,2.0494,2.048,2.0498,2.0494,2.0379,2.0378,2.0377,2.0385,0,0,0,0,0,0,2.0797,2.0783,2.0768,2.0725,2.071,2.0647,2.065,2.0643,2.0621,2.062,2.0575,2.0568,2.0547,2.05,2.049,2.0475,2.0491,2.038,2.0379,2.0377,2.0386,2.0384,2.0383,0,0,0,0,0,2.0802,2.0772,2.0767,2.0756,2.069,2.0646,2.0637,2.0615,2.0619,2.0604,2.0578,2.0569,2.0483,2.0496,2.0484,2.0467,2.0381,2.0379,2.0377,2.0387,2.0385,2.0383,0,0,0,0,0,0,2.0813,2.0766,2.076,2.0716,2.0685,2.0643,2.0622,2.0613,2.058,2.058,2.0553,2.0543,2.0502,2.048,2.0495,2.0428,2.0432,2.0428,2.0443,2.0441,2.044,2.0446,2.0488,0,0,0,0,0,2.081,2.078,2.074,2.0705,2.069,2.0659,2.0639,2.0625,2.0591,2.0578,2.0549,2.0517,2.0483,2.0461,2.0427,2.0383,2.0373,2.0366,2.0365,2.0363,2.036,2.0337,2.0334,2.037,2.037,2.037,0,0,2.0804,2.0775,2.0757,2.0706,2.0681,2.0649,2.0648,2.0614,2.059,2.0572,2.0531,2.0509,2.0471,2.0428,2.0407,2.0408,2.0348,2.0361,2.0361,2.0357,2.0335,2.0331,2.0328,2.0369,2.0369,2.0369,0,0,2.0777,2.0752,2.0721,2.0696,2.0659,2.0639,2.0631,2.0591,2.0576,2.0534,2.0521,2.0492,2.0433,2.0407,2.0386,2.0353,2.0344,2.0342,2.0334,2.0312,2.0309,2.0307,2.0296,2.0292,2.0339,2.0339,2.0339,0,2.0774,2.0727,2.0705,2.0673,2.0652,2.0636,2.0604,2.0581,2.0534,2.0519,2.0522,2.0449,2.0422,2.0374,2.0366,2.035,2.0341,2.0347,2.0312,2.0309,2.0306,2.0295,2.0291,2.0339,2.0339,2.0339,2.0339,0,2.0726,2.0693,2.0672,2.063,2.0606,2.0574,2.0547,2.0526,2.0514,2.0494,2.0452,2.042,2.038,2.0368,2.0355,2.0318,2.032,2.0317,2.0321,2.0303,2.0293,2.0288,2.034,2.034,2.0339,2.0339,0,0,2.0702,2.065,2.0642,2.0624,2.0582,2.0556,2.0524,2.0487,2.047,2.0438,2.0411,2.0363,2.0361,2.0338,2.0322,2.0303,2.028,2.0302,2.0301,2.03,2.0238,2.0241,2.0237,2.0274,2.0273,2.0272,2.0242,0,2.067,2.0614,2.0594,2.0547,2.0517,2.0503,2.0476,2.0447,2.0428,2.04,2.0378,2.0345,2.0345,2.0331,2.0311,2.0287,2.0267,2.0289,2.0248,2.0247,2.0258,2.0231,2.0233,2.0206,2.0238,2.0237,2.0236,0,2.0626,2.0596,2.0546,2.0511,2.0498,2.0473,2.0439,2.0412,2.038,2.0367,2.0343,2.0329,2.0295,2.0302,2.0255,2.0271,2.0253,2.0239,2.0237,2.0233,2.0241,2.0226,2.0197,2.0193,2.0229,2.023,2.023,0,2.0615,2.0562,2.0526,2.051,2.0468,2.0451,2.0433,2.0401,2.0381,2.0351,2.0337,2.0303,2.0284,2.0258,2.0236,2.0242,2.0191,2.0196,2.018,2.0181,2.017,2.0171,2.0138,2.0158,2.0158,2.0158,2.0158,0,2.0582,2.0552,2.0521,2.0499,2.0466,2.0444,2.0412,2.0392,2.0365,2.0339,2.0324,2.03,2.0272,2.0244,2.0226,2.0191,2.0182,2.0172,2.0167,2.0173,2.0175,2.0161,2.0162,2.0157,2.0157,2.0157,2.0158,0,2.0564,2.0541,2.0502,2.0466,2.0456,2.0433,2.0402,2.038,2.0362,2.0329,2.032,2.029,2.0257,2.0232,2.0188,2.0177,2.0139,2.0135,2.0151,2.0149,2.0135,2.0137,2.0092,2.0086,2.011,2.011,2.011,0,2.0544,2.0521,2.0484,2.0466,2.0448,2.0419,2.0399,2.0378,2.0357,2.032,2.0303,2.0269,2.0241,2.0188,2.0162,2.0129,2.0124,2.0111,2.0119,2.0126,2.0125,2.0127,2.0125,2.011,2.011,2.0109,2.0109,0,2.0512,2.0503,2.0475,2.0444,2.0421,2.0395,2.0369,2.0355,2.0328,2.0306,2.0273,2.0251,2.0208,2.0175,2.014,2.012,2.011,2.0107,2.0102,2.0108,2.0118,2.0113,2.0148,2.0108,2.0108,2.0108,2.0108,2.0108,2.0493,2.0473,2.0445,2.0414,2.0393,2.0369,2.0348,2.0327,2.03,2.0264,2.0253,2.0218,2.0189,2.0141,2.0121,2.0094,2.0094,2.0087,2.0085,2.0083,2.0084,2.0123,2.0087,2.0087,2.0087,2.0087,2.0087,0,2.0462,2.0443,2.0416,2.0381,2.0357,2.0352,2.0323,2.0304,2.0275,2.0248,2.0222,2.0184,2.0152,2.0125,2.0092,2.0076,2.0071,2.0068,2.0069,2.0065,2.0085,2.0093,2.0073,2.0073,2.0073,2.0073,2.0073,2.0073,2.0442,2.0409,2.0397,2.0353,2.0334,2.0302,2.0286,2.0264,2.0244,2.0203,2.0177,2.016,2.0134,2.0099,2.007,2.0063,2.0052,2.005,2.0042,2.0062,2.0063,2.0065,2.0073,2.0048,2.0048,2.0024,2.0024,2.0024]}]]